KB2AHZ Weather Reports


Display with metric or nautical units.
time (UTC)temp
F
wind
direction
speed
MPH
gust
MPH
rain 1hr
in
rain 24hr
in
rain mn
in
humidity
%
barometer
mb
20260506001702 74 237 2.0 3.0 0.00 0.00 0.00 52 1013.3
20260506001200 74 239 3.0 5.0 0.00 0.00 0.00 52 1013.3
20260506000657 74 211 2.0 4.0 0.00 0.00 0.00 51 1013.3
20260506000154 75 216 0.0 8.0 0.00 0.00 0.00 51 1013.2
20260505235652 75 241 1.0 5.0 0.00 0.00 0.00 50 1013.2
20260505235149 75 265 2.0 6.0 0.00 0.00 0.00 50 1013.2
20260505234646 76 180 0.0 3.0 0.00 0.00 0.00 49 1013.3
20260505234143 76 175 2.0 8.0 0.00 0.00 0.00 49 1013.1
20260505233640 76 264 2.0 6.0 0.00 0.00 0.00 48 1013.1
20260505233137 77 220 3.0 10.0 0.00 0.00 0.00 48 1013.3
20260505232635 77 268 3.0 6.0 0.00 0.00 0.00 47 1013.4
20260505232132 77 224 7.0 12.0 0.00 0.00 0.00 47 1013.2
20260505231629 77 244 4.0 9.0 0.00 0.00 0.00 47 1013.1
20260505231128 77 265 4.0 4.0 0.00 0.00 0.00 47 1013.2
20260505230626 78 267 2.0 6.0 0.00 0.00 0.00 46 1013.1
20260505230121 78 194 1.0 12.0 0.00 0.00 0.00 45 1013.0
20260505225618 78 199 6.0 10.0 0.00 0.00 0.00 45 1013.1
20260505225114 78 264 5.0 7.0 0.00 0.00 0.00 44 1013.2
20260505224611 78 273 3.0 7.0 0.00 0.00 0.00 44 1013.4
20260505224108 78 292 3.0 17.0 0.00 0.00 0.00 43 1013.3
20260505223605 79 270 5.0 11.0 0.00 0.00 0.00 44 1013.2
20260505223101 79 229 2.0 9.0 0.00 0.00 0.00 44 1013.4
20260505222558 79 15 2.0 16.0 0.00 0.00 0.00 44 1013.2
20260505222054 79 265 3.0 5.0 0.00 0.00 0.00 45 1013.2
20260505221551 78 231 3.0 6.0 0.00 0.00 0.00 44 1013.3
20260505221048 79 330 3.0 7.0 0.00 0.00 0.00 44 1013.5
20260505220545 79 246 3.0 11.0 0.00 0.00 0.00 44 1013.3
20260505220043 79 254 4.0 12.0 0.00 0.00 0.00 44 1013.4
20260505215541 79 283 5.0 16.0 0.00 0.00 0.00 44 1013.2
20260505215038 79 272 5.0 10.0 0.00 0.00 0.00 44 1013.1
20260505214536 78 261 5.0 11.0 0.00 0.00 0.00 44 1013.4
20260505214033 79 259 4.0 20.0 0.00 0.00 0.00 43 1013.2
20260505213531 79 224 7.0 17.0 0.00 0.00 0.00 43 1013.2
20260505213027 79 270 4.0 13.0 0.00 0.00 0.00 43 1013.4
20260505212523 80 245 5.0 13.0 0.00 0.00 0.00 42 1013.0
20260505212020 80 252 5.0 9.0 0.00 0.00 0.00 42 1013.3
20260505211518 81 244 0.0 17.0 0.00 0.00 0.00 41 1013.4
20260505211014 81 278 8.0 11.0 0.00 0.00 0.00 40 1013.2
20260505210511 81 245 5.0 10.0 0.00 0.00 0.00 40 1013.3
20260505210008 81 249 8.0 15.0 0.00 0.00 0.00 40 1013.5
20260505205506 82 243 5.0 14.0 0.00 0.00 0.00 39 1013.4
20260505205003 81 277 5.0 12.0 0.00 0.00 0.00 39 1013.4
20260505204501 81 226 7.0 13.0 0.00 0.00 0.00 39 1013.6
20260505203957 82 261 3.0 8.0 0.00 0.00 0.00 39 1013.7
20260505203454 82 262 4.0 11.0 0.00 0.00 0.00 40 1013.4
20260505202950 81 290 3.0 16.0 0.00 0.00 0.00 40 1013.4
20260505202447 81 195 4.0 14.0 0.00 0.00 0.00 40 1013.7
20260505201943 81 229 10.0 17.0 0.00 0.00 0.00 40 1013.4
20260505201440 81 218 5.0 23.0 0.00 0.00 0.00 39 1013.6
20260505200938 81 264 7.0 19.0 0.00 0.00 0.00 39 1013.6
20260505200436 81 261 7.0 12.0 0.00 0.00 0.00 40 1013.7
20260505195931 81 257 7.0 12.0 0.00 0.00 0.00 40 1013.6
20260505195428 80 246 10.0 18.0 0.00 0.00 0.00 39 1014.0
20260505194926 80 250 6.0 15.0 0.00 0.00 0.00 40 1014.1
20260505194423 81 253 5.0 11.0 0.00 0.00 0.00 39 1014.0
20260505193923 81 266 5.0 14.0 0.00 0.00 0.00 38 1014.1
20260505193421 81 248 5.0 14.0 0.00 0.00 0.00 37 1013.8
20260505192918 81 286 10.0 10.0 0.00 0.00 0.00 37 1014.1
20260505192416 81 291 11.0 12.0 0.00 0.00 0.00 38 1014.1
20260505191914 82 270 5.0 16.0 0.00 0.00 0.00 38 1014.0
20260505191412 82 200 4.0 30.0 0.00 0.00 0.00 37 1014.3
20260505190909 82 189 9.0 10.0 0.00 0.00 0.00 38 1014.2
20260505190405 81 345 2.0 16.0 0.00 0.00 0.00 38 1014.2
20260505185859 81 266 7.0 16.0 0.00 0.00 0.00 36 1014.6
20260505185356 81 342 2.0 9.0 0.00 0.00 0.00 37 1014.6
20260505184853 81 254 5.0 12.0 0.00 0.00 0.00 37 1014.5
20260505184350 82 288 4.0 14.0 0.00 0.00 0.00 37 1014.6
20260505183847 82 250 5.0 19.0 0.00 0.00 0.00 37 1014.9
20260505183344 83 311 2.0 11.0 0.00 0.00 0.00 37 1014.9
20260505182840 82 291 5.0 14.0 0.00 0.00 0.00 37 1014.9
20260505182337 82 219 2.0 20.0 0.00 0.00 0.00 37 1015.1
20260505181834 82 286 5.0 11.0 0.00 0.00 0.00 38 1015.0
20260505181331 81 316 4.0 10.0 0.00 0.00 0.00 37 1015.3
20260505180827 81 284 7.0 17.0 0.00 0.00 0.00 36 1015.3
20260505180324 83 283 9.0 16.0 0.00 0.00 0.00 36 1015.3
20260505175821 82 189 3.0 12.0 0.00 0.00 0.00 39 1015.2
20260505175317 83 238 8.0 13.0 0.00 0.00 0.00 38 1015.3
20260505174814 82 247 8.0 13.0 0.00 0.00 0.00 37 1015.2
20260505174311 82 287 5.0 10.0 0.00 0.00 0.00 37 1015.6
20260505173807 81 165 7.0 15.0 0.00 0.00 0.00 37 1015.6
20260505173303 81 325 3.0 16.0 0.00 0.00 0.00 39 1015.4
20260505172801 80 247 3.0 20.0 0.00 0.00 0.00 37 1015.7
20260505172258 81 246 5.0 13.0 0.00 0.00 0.00 37 1015.7
20260505171753 80 295 5.0 17.0 0.00 0.00 0.00 37 1015.5
20260505171250 80 208 5.0 10.0 0.00 0.00 0.00 39 1015.9
20260505170746 80 287 4.0 11.0 0.00 0.00 0.00 39 1015.9
20260505170244 80 236 3.0 15.0 0.00 0.00 0.00 40 1016.0
20260505165738 80 250 5.0 10.0 0.00 0.00 0.00 39 1015.7
20260505165235 80 237 3.0 12.0 0.00 0.00 0.00 39 1015.9
20260505164730 80 274 6.0 7.0 0.00 0.00 0.00 40 1016.1
20260505164228 79 286 6.0 13.0 0.00 0.00 0.00 39 1015.8
20260505163726 80 303 4.0 12.0 0.00 0.00 0.00 40 1015.9
20260505163224 78 284 5.0 16.0 0.00 0.00 0.00 40 1015.9
20260505162721 79 235 8.0 14.0 0.00 0.00 0.00 42 1016.0
20260505162218 79 290 4.0 7.0 0.00 0.00 0.00 44 1016.3
20260505161715 78 234 5.0 12.0 0.00 0.00 0.00 43 1016.0
20260505161213 78 255 3.0 10.0 0.00 0.00 0.00 45 1016.2
20260505160710 78 270 6.0 17.0 0.00 0.00 0.00 44 1016.3
20260505160207 79 238 6.0 15.0 0.00 0.00 0.00 44 1016.5
20260505153146 77 272 4.0 8.0 0.00 0.00 0.00 48 1016.6
20260505152643 77 228 5.0 8.0 0.00 0.00 0.00 49 1016.9
20260505152139 76 242 3.0 5.0 0.00 0.00 0.00 50 1016.8
20260505151634 76 308 4.0 8.0 0.00 0.00 0.00 52 1016.7
20260505151132 75 250 7.0 8.0 0.00 0.00 0.00 53 1016.8
20260505150628 75 197 3.0 8.0 0.00 0.00 0.00 53 1016.9
20260505150125 74 226 3.0 7.0 0.00 0.00 0.00 53 1016.8
20260505140554 71 283 5.0 8.0 0.00 0.00 0.00 59 1016.5
20260505125007 65 177 4.0 11.0 0.00 0.00 0.00 69 1016.8
20260505124504 65 208 3.0 8.0 0.00 0.00 0.00 68 1016.9
20260505124000 65 221 5.0 6.0 0.00 0.00 0.00 69 1016.7
20260505123457 65 244 5.0 13.0 0.00 0.00 0.00 68 1016.6
20260505122953 65 254 4.0 10.0 0.00 0.00 0.00 69 1017.0
20260505122450 64 224 2.0 11.0 0.00 0.00 0.00 70 1016.4
20260505121947 64 256 2.0 7.0 0.00 0.00 0.00 71 1016.6
20260505121443 64 201 3.0 9.0 0.00 0.00 0.00 70 1016.7
20260505120939 64 221 4.0 8.0 0.00 0.00 0.00 71 1016.4
20260505120436 63 221 3.0 9.0 0.00 0.00 0.00 72 1016.4
20260505115935 63 205 3.0 7.0 0.00 0.00 0.00 73 1016.4
20260505115432 62 221 2.0 8.0 0.00 0.00 0.00 73 1016.3
20260505114930 62 221 4.0 8.0 0.00 0.00 0.00 73 1016.4
20260505114426 62 223 0.0 5.0 0.00 0.00 0.00 74 1016.4
20260505113922 61 198 0.0 9.0 0.00 0.00 0.00 75 1016.5
20260505113419 61 218 3.0 5.0 0.00 0.00 0.00 75 1016.1
20260505112915 60 221 3.0 6.0 0.00 0.00 0.00 77 1016.2
20260505112413 60 219 4.0 5.0 0.00 0.00 0.00 78 1016.4
20260505111909 59 186 2.0 9.0 0.00 0.00 0.00 79 1016.3
20260505111403 58 249 5.0 8.0 0.00 0.00 0.00 82 1016.4
20260505110900 58 234 0.0 3.0 0.00 0.00 0.00 82 1016.4
20260505110357 58 106 3.0 4.0 0.00 0.00 0.00 82 1016.1
20260505101827 59 219 2.0 5.0 0.00 0.00 0.00 79 1016.0
20260505101323 59 205 3.0 4.0 0.00 0.00 0.00 79 1015.9
20260505100818 59 215 0.0 3.0 0.00 0.00 0.00 79 1015.7
20260505100316 59 242 2.0 4.0 0.00 0.00 0.00 79 1015.8
20260505095811 58 220 2.0 6.0 0.00 0.00 0.00 80 1015.9
20260505095309 59 213 2.0 3.0 0.00 0.00 0.00 80 1015.5
20260505094804 59 170 0.0 4.0 0.00 0.00 0.00 80 1015.6
20260505094302 59 161 2.0 3.0 0.00 0.00 0.00 78 1015.8
20260505093757 59 203 4.0 6.0 0.00 0.00 0.00 78 1015.6
20260505093255 60 249 0.0 3.0 0.00 0.00 0.00 77 1015.6
20260505092751 60 227 2.0 8.0 0.00 0.00 0.00 77 1015.5
20260505092250 60 247 0.0 8.0 0.00 0.00 0.00 76 1015.6
20260505091746 60 229 3.0 3.0 0.00 0.00 0.00 76 1015.7
20260505091244 60 261 2.0 4.0 0.00 0.00 0.00 75 1015.4
20260505090737 61 264 4.0 9.0 0.00 0.00 0.00 75 1015.5
20260505090235 61 258 2.0 4.0 0.00 0.00 0.00 75 1015.6
20260505085732 61 221 2.0 6.0 0.00 0.00 0.00 75 1015.4
20260505085230 61 231 4.0 7.0 0.00 0.00 0.00 74 1015.4
20260505084727 61 211 2.0 6.0 0.00 0.00 0.00 74 1015.3
20260505084226 61 219 3.0 9.0 0.00 0.00 0.00 73 1015.1
20260505083723 61 66 1.0 6.0 0.00 0.00 0.00 73 1015.3
20260505083219 61 227 2.0 7.0 0.00 0.00 0.00 74 1015.1
20260505082715 61 231 4.0 10.0 0.00 0.00 0.00 74 1015.0
20260505082213 62 177 2.0 12.0 0.00 0.00 0.00 73 1015.3
20260505081708 61 204 5.0 9.0 0.00 0.00 0.00 74 1015.3
20260505081206 62 221 1.0 4.0 0.00 0.00 0.00 73 1015.2
20260505080703 62 252 3.0 10.0 0.00 0.00 0.00 73 1015.3
20260505080159 62 239 2.0 7.0 0.00 0.00 0.00 73 1015.1
20260505075655 62 244 4.0 9.0 0.00 0.00 0.00 72 1014.8
20260505075152 62 279 2.0 11.0 0.00 0.00 0.00 72 1015.1
20260505074649 62 219 3.0 5.0 0.00 0.00 0.00 73 1014.9
20260505074146 62 169 4.0 7.0 0.00 0.00 0.00 73 1014.9
20260505073643 62 236 4.0 7.0 0.00 0.00 0.00 73 1015.0
20260505073141 62 245 0.0 9.0 0.00 0.00 0.00 72 1014.8
20260505072636 62 155 2.0 6.0 0.00 0.00 0.00 72 1015.0
20260505072133 62 254 2.0 4.0 0.00 0.00 0.00 73 1015.0
20260505071629 62 206 4.0 8.0 0.00 0.00 0.00 72 1014.9
20260505071127 62 295 4.0 16.0 0.00 0.00 0.00 71 1014.6
20260505070624 62 218 5.0 7.0 0.00 0.00 0.00 72 1014.9
20260505070120 62 316 2.0 10.0 0.00 0.00 0.00 72 1015.0
20260505065616 62 257 5.0 9.0 0.00 0.00 0.00 72 1014.5
20260505065113 63 217 3.0 8.0 0.00 0.00 0.00 71 1014.7
20260505064610 63 242 4.0 8.0 0.00 0.00 0.00 71 1015.1
20260505064109 63 225 3.0 8.0 0.00 0.00 0.00 71 1014.7
20260505063605 63 251 4.0 15.0 0.00 0.00 0.00 71 1014.6
20260505063101 63 302 4.0 6.0 0.00 0.00 0.00 71 1014.8
20260505062557 63 202 3.0 8.0 0.00 0.00 0.00 71 1014.6
20260505062055 63 212 3.0 10.0 0.00 0.00 0.00 71 1014.6
20260505061552 63 257 3.0 7.0 0.00 0.00 0.00 71 1014.8
20260505061050 63 238 0.0 6.0 0.00 0.00 0.00 70 1014.8
20260505060547 63 221 1.0 5.0 0.00 0.00 0.00 70 1014.7
20260505060044 64 240 2.0 7.0 0.00 0.00 0.00 69 1014.7
20260505055539 64 195 3.0 7.0 0.00 0.00 0.00 69 1014.9
20260505055036 64 288 5.0 9.0 0.00 0.00 0.00 69 1014.6
20260505054534 64 254 3.0 4.0 0.00 0.00 0.00 68 1014.6
20260505054032 64 248 4.0 8.0 0.00 0.00 0.00 67 1014.7
20260505053529 64 247 2.0 14.0 0.00 0.00 0.00 67 1014.6
20260505053025 65 250 3.0 12.0 0.00 0.00 0.00 66 1014.9
20260505052522 65 247 5.0 8.0 0.00 0.00 0.00 66 1014.8
20260505052020 65 152 5.0 8.0 0.00 0.00 0.00 65 1014.9
20260505051516 65 247 3.0 6.0 0.00 0.00 0.00 64 1014.8
20260505051015 65 252 3.0 9.0 0.00 0.00 0.00 64 1014.7
20260505050512 65 234 5.0 7.0 0.00 0.00 0.00 64 1014.7
20260505041434 67 221 2.0 7.0 0.00 0.00 0.00 55 1014.7
20260505040931 67 227 4.0 9.0 0.00 0.00 0.00 54 1014.7
20260505040429 67 241 5.0 12.0 0.00 0.00 0.00 53 1014.7
20260505035925 67 253 3.0 9.0 0.00 0.00 0.00 53 1014.5
20260505035421 67 224 4.0 10.0 0.00 0.00 0.00 52 1014.5
20260505034919 67 219 5.0 12.0 0.00 0.00 0.00 52 1014.5
20260505034415 67 250 3.0 7.0 0.00 0.00 0.00 52 1014.6
20260505033912 67 253 6.0 9.0 0.00 0.00 0.00 51 1014.3
20260505033409 67 209 6.0 9.0 0.00 0.00 0.00 51 1014.3
20260505032907 67 223 2.0 9.0 0.00 0.00 0.00 51 1014.3
20260505032404 67 265 4.0 4.0 0.00 0.00 0.00 51 1014.1
20260505031900 67 230 7.0 9.0 0.00 0.00 0.00 51 1014.2
20260505031357 67 294 0.0 4.0 0.00 0.00 0.00 51 1014.6
20260505030854 66 243 2.0 5.0 0.00 0.00 0.00 53 1014.1
20260505030350 67 245 2.0 6.0 0.00 0.00 0.00 52 1014.2
20260505025846 67 281 3.0 7.0 0.00 0.00 0.00 52 1014.1
20260505025344 67 246 2.0 11.0 0.00 0.00 0.00 52 1014.0
20260505024842 67 282 0.0 9.0 0.00 0.00 0.00 52 1014.5
20260505024340 67 251 3.0 7.0 0.00 0.00 0.00 52 1014.5
20260505023836 65 251 4.0 6.0 0.00 0.00 0.00 55 1014.5
20260505023333 65 253 0.0 3.0 0.00 0.00 0.00 59 1014.2
20260505022831 64 217 2.0 3.0 0.00 0.00 0.00 64 1014.1
20260505022327 63 265 0.0 2.0 0.00 0.00 0.00 66 1014.2
20260505021825 63 184 0.0 2.0 0.00 0.00 0.00 67 1013.9
20260505021321 63 176 0.0 3.0 0.00 0.00 0.00 65 1014.1
20260505020817 64 196 1.0 3.0 0.00 0.00 0.00 64 1014.3
20260505020313 64 160 0.0 2.0 0.00 0.00 0.00 61 1014.0
20260505015810 65 91 0.0 6.0 0.00 0.00 0.00 59 1013.9
20260505015307 64 271 0.0 1.0 0.00 0.00 0.00 59 1013.8
20260505014804 64 181 0.0 2.0 0.00 0.00 0.00 60 1013.8
20260505014301 65 198 0.0 2.0 0.00 0.00 0.00 61 1013.9
20260505013757 65 188 0.0 2.0 0.00 0.00 0.00 60 1013.8
20260505013255 65 96 0.0 3.0 0.00 0.00 0.00 59 1013.7
20260505012753 66 106 0.0 3.0 0.00 0.00 0.00 56 1013.5
20260505012250 66 198 2.0 2.0 0.00 0.00 0.00 55 1013.8
20260505011746 66 180 0.0 3.0 0.00 0.00 0.00 55 1013.6
20260505011243 66 200 1.0 3.0 0.00 0.00 0.00 55 1013.7
20260505010739 67 170 0.0 2.0 0.00 0.00 0.00 55 1013.6
20260505010235 67 188 0.0 2.0 0.00 0.00 0.00 54 1013.5
20260505005732 68 119 0.0 3.0 0.00 0.00 0.00 54 1013.2
20260505005229 68 151 0.0 2.0 0.00 0.00 0.00 55 1013.3
20260505004726 69 165 0.0 3.0 0.00 0.00 0.00 50 1013.1
20260505004222 70 232 1.0 3.0 0.00 0.00 0.00 48 1013.1
20260505003719 70 227 0.0 3.0 0.00 0.00 0.00 53 1013.2
20260505003217 70 234 0.0 1.0 0.00 0.00 0.00 51 1013.5
20260505002713 70 261 0.0 4.0 0.00 0.00 0.00 48 1013.1
20260505002211 70 207 0.0 0.0 0.00 0.00 0.00 49 1013.3